TimeEST,TemperatureF,Dew PointF,Humidity,Sea Level PressureIn,VisibilityMPH,Wind Direction,Wind SpeedMPH,Gust SpeedMPH,PrecipitationIn,Events,Conditions,WindDirDegrees,DateUTC
12:53 AM,51.1,46.9,86,29.91,10.0,SSE,13.8,-,N/A,,Clear,160,2013-01-12 05:53:00
1:53 AM,51.1,46.9,86,29.92,10.0,SSE,13.8,-,N/A,,Clear,160,2013-01-12 06:53:00
2:53 AM,51.1,46.9,86,29.94,10.0,SSE,11.5,-,N/A,,Clear,160,2013-01-12 07:53:00
3:53 AM,51.1,46.9,86,29.94,10.0,SSE,12.7,-,N/A,,Clear,160,2013-01-12 08:53:00
4:53 AM,50.0,46.9,89,29.94,10.0,SSE,15.0,-,N/A,,Clear,160,2013-01-12 09:53:00
5:53 AM,48.9,48.0,97,29.94,8.0,SSE,16.1,-,N/A,,Clear,160,2013-01-12 10:53:00
6:53 AM,52.0,48.9,89,29.94,10.0,SSE,13.8,20.7,N/A,,Clear,160,2013-01-12 11:53:00
7:53 AM,53.1,50.0,89,29.95,10.0,South,10.4,-,N/A,,Clear,180,2013-01-12 12:53:00
8:53 AM,54.0,50.0,86,29.97,10.0,South,12.7,-,N/A,,Clear,170,2013-01-12 13:53:00
9:53 AM,55.0,51.1,86,29.99,10.0,South,13.8,-,N/A,,Clear,180,2013-01-12 14:53:00
10:53 AM,57.0,52.0,83,30.00,10.0,SSW,12.7,-,N/A,,Clear,200,2013-01-12 15:53:00
11:53 AM,60.1,52.0,75,29.99,10.0,SSW,13.8,23.0,N/A,,Clear,200,2013-01-12 16:53:00
12:53 PM,61.0,53.1,75,29.96,10.0,SSW,12.7,-,N/A,,Clear,200,2013-01-12 17:53:00
1:53 PM,61.0,52.0,72,29.95,10.0,South,13.8,23.0,N/A,,Clear,180,2013-01-12 18:53:00
2:53 PM,61.0,52.0,72,29.96,10.0,South,13.8,19.6,N/A,,Clear,170,2013-01-12 19:53:00
3:53 PM,61.0,53.1,75,29.98,10.0,SSW,12.7,-,N/A,,Clear,210,2013-01-12 20:53:00
4:53 PM,60.1,53.1,78,29.99,10.0,SSW,8.1,-,N/A,,Scattered Clouds,210,2013-01-12 21:53:00
5:53 PM,57.9,52.0,81,29.97,10.0,South,4.6,-,N/A,,Clear,190,2013-01-12 22:53:00
6:53 PM,57.0,52.0,83,29.96,10.0,SSE,3.5,-,N/A,,Scattered Clouds,160,2013-01-12 23:53:00
8:53 PM,57.0,53.1,87,29.93,9.0,SSE,8.1,-,N/A,,Scattered Clouds,160,2013-01-13 01:53:00
9:53 PM,57.9,54.0,87,29.90,10.0,SSE,11.5,-,N/A,,Mostly Cloudy,160,2013-01-13 02:53:00
10:53 PM,57.9,54.0,87,29.88,10.0,SSE,10.4,-,N/A,,Overcast,150,2013-01-13 03:53:00